[ hide orbit diagram ]
For accurate long-term ephemerides, please instead use our Horizons system.This orbit viewer was implemented using two-body methods, and hence should not be used for determining accurate long-term trajectories (over several years or decades) or planetary encounter circumstances.
Orbital Elements at Epoch 2458989.5 (2020-May-20.0) TDB
Reference: JPL 1 (heliocentric ecliptic J2000)
Element | Value | Uncertainty (1-sigma) | Units |
e | .4373515697762789 | 0.016564 | |
a | 2.738355066963822 | 0.095981 | au |
q | 1.540731179822367 | 0.0088251 | au |
i | 17.60180934000718 | 0.46569 | deg |
node | 69.99199003982388 | 0.0095127 | deg |
peri | 199.3099661329213 | 1.2405 | deg |
M | 350.9096121367409 | 0.14979 | deg |
tp | 2459031.293907758070 (2020-Jun-30.79390776) | 2.1326 | TDB |
period | 1655.133644375748 4.53 | 87.021 0.2383 | d yr |
n | .2175050946630826 | 0.011436 | deg/d |
Q | 3.935978954105277 | 0.13796 | au |
|
| | Orbit Determination Parameters
Additional Information
|
[ show covariance matrix ]
Physical Parameter Table
Parameter |
Symbol |
Value |
Units |
Sigma |
Reference |
Notes |
absolute magnitude |
H |
20.4 |
|
.61209 |
E2020M39 |
autocmod 2.8 |
|
|